FW0639 Weather Reports


time (UTC)temp
C
wind
direction
speed
KPH
gust
KPH
rain 1hr
cm
rain 24hr
cm
rain mn
cm
humidity
%
barometer
mb
20260906052514 15 344 0.0 6.4 0.00 0.00 0.00 65 1014.5
20260906051510 15 343 0.0 0.0 0.00 0.00 0.00 65 1014.4
20260906050506 15 342 0.0 0.0 0.00 0.00 0.00 64 1014.5
20260906045509 16 342 0.0 0.0 0.00 0.00 0.00 61 1014.4
20260906043348 16 338 0.0 6.4 0.00 0.00 0.00 57 1014.3
20260906042404 16 338 0.0 6.4 0.00 0.00 0.00 56 1014.2
20260906041405 17 338 0.0 0.0 0.00 0.00 0.00 54 1014.2
20260906040401 17 339 0.0 1.6 0.00 0.00 0.00 53 1014.1
20260906035424 17 338 0.0 0.0 0.00 0.00 0.00 51 1014.1
20260906034438 18 338 0.0 6.4 0.00 0.00 0.00 50 1013.9
20260906033407 18 338 1.6 6.4 0.00 0.00 0.00 48 1013.8
20260906032403 18 339 0.0 4.8 0.00 0.00 0.00 49 1013.8
20260906031407 18 338 0.0 3.2 0.00 0.00 0.00 49 1013.8
20260906030345 18 338 0.0 0.0 0.00 0.00 0.00 48 1013.5
20260906025408 18 339 0.0 3.2 0.00 0.00 0.00 48 1013.4
20260906024419 18 338 0.0 0.0 0.00 0.00 0.00 49 1013.4
20260906023411 18 339 0.0 0.0 0.00 0.00 0.00 49 1013.2
20260906022350 18 339 0.0 0.0 0.00 0.00 0.00 47 1013.2
20260906021407 18 339 0.0 0.0 0.00 0.00 0.00 46 1013.1
20260906020408 19 339 0.0 0.0 0.00 0.00 0.00 44 1013.0
20260906014241 21 338 0.0 0.0 0.00 0.00 0.00 41 1012.8
20260906013222 21 338 0.0 0.0 0.00 0.00 0.00 40 1012.8
20260906012204 22 338 0.0 0.0 0.00 0.00 0.00 37 1012.6
20260906010023 23 338 0.0 3.2 0.00 0.00 0.00 39 1012.7
20260906003828 23 338 0.0 3.2 0.00 0.00 0.00 39 1012.6
20260906002804 23 338 0.0 4.8 0.00 0.00 0.00 38 1012.5
20260906001823 23 338 0.0 4.8 0.00 0.00 0.00 40 1012.5
20260906000758 23 338 0.0 11.3 0.00 0.00 0.00 39 1012.5
20260905235734 23 338 0.0 3.2 0.00 0.00 0.00 39 1012.5
20260905234708 23 339 0.0 0.0 0.00 0.00 0.00 39 1012.4
20260905233720 23 232 0.0 11.3 0.00 0.00 0.00 40 1012.4
20260905232729 23 106 1.6 8.0 0.00 0.00 0.00 40 1012.2
20260905231729 23 92 0.0 3.2 0.00 0.00 0.00 40 1012.4
20260905230732 24 86 0.0 9.7 0.00 0.00 0.00 40 1012.4
20260905225744 23 97 0.0 0.0 0.00 0.00 0.00 41 1012.5
20260905224736 23 228 1.6 12.9 0.00 0.00 0.00 40 1012.5
20260905223716 24 222 0.0 4.8 0.00 0.00 0.00 40 1012.6
20260905222705 24 211 0.0 6.4 0.00 0.00 0.00 43 1012.5
20260905221652 23 211 0.0 6.4 0.00 0.00 0.00 41 1012.6
20260905215548 23 34 0.0 1.6 0.00 0.00 0.00 40 1012.6
20260905214604 23 20 0.0 1.6 0.00 0.00 0.00 42 1012.7
20260905213620 23 13 1.6 11.3 0.00 0.00 0.00 42 1012.8
20260905212600 24 30 1.6 11.3 0.00 0.00 0.00 39 1012.9
20260905211544 23 30 0.0 8.0 0.00 0.00 0.00 42 1013.1
20260905210603 23 60 0.0 8.0 0.00 0.00 0.00 41 1013.4
20260905205621 23 19 1.6 8.0 0.00 0.00 0.00 42 1013.5
20260905204617 23 41 0.0 4.8 0.00 0.00 0.00 42 1013.6
20260905202540 22 14 0.0 4.8 0.00 0.00 0.00 44 1013.8
20260905201556 22 5 1.6 9.7 0.00 0.00 0.00 46 1013.9
20260905200553 22 346 0.0 9.7 0.00 0.00 0.00 45 1014.1
20260905195612 22 345 1.6 8.0 0.00 0.00 0.00 46 1014.0
20260905194541 21 339 0.0 4.8 0.00 0.00 0.00 47 1014.1
20260905193555 21 339 1.6 0.0 0.00 0.00 0.00 48 1014.1
20260905192525 20 340 1.6 9.7 0.00 0.00 0.00 46 1014.3
20260905185246 20 350 0.0 0.0 0.00 0.00 0.00 49 1014.6
20260905184213 20 342 0.0 6.4 0.00 0.00 0.00 49 1014.6
20260905183237 20 340 0.0 3.2 0.00 0.00 0.00 49 1014.7
20260905182221 20 342 1.6 4.8 0.00 0.00 0.00 50 1014.7
20260905181211 20 340 0.0 1.6 0.00 0.00 0.00 52 1014.7
20260905180152 19 328 0.0 4.8 0.00 0.00 0.00 52 1014.9
20260905175203 18 328 0.0 4.8 0.00 0.00 0.00 52 1014.9
20260905174140 18 328 0.0 6.4 0.00 0.00 0.00 52 1015.1
20260905172016 17 332 1.6 9.7 0.00 0.00 0.00 57 1015.2
20260905171013 16 332 0.0 6.4 0.00 0.00 0.00 57 1015.2
20260905165950 16 332 0.0 1.6 0.00 0.00 0.00 59 1015.4
20260905164954 15 332 0.0 3.2 0.00 0.00 0.00 61 1015.3
20260905161625 14 332 0.0 6.4 0.00 0.00 0.00 64 1015.4
20260905160557 13 332 0.0 4.8 0.00 0.00 0.00 68 1015.2
20260905155534 13 332 0.0 0.0 0.00 0.00 0.00 69 1015.2
20260905153426 11 332 0.0 0.0 0.00 0.00 0.00 73 1015.2
20260905152357 11 332 0.0 0.0 0.00 0.00 0.00 76 1015.2
20260905151405 11 332 0.0 0.0 0.00 0.00 0.00 77 1015.2
20260905150348 10 332 0.0 0.0 0.00 0.00 0.00 77 1015.3
20260905145316 10 332 0.0 0.0 0.00 0.00 0.00 77 1015.2
20260905144320 9 332 0.0 0.0 0.00 0.00 0.00 80 1015.1
20260905143248 8 335 0.0 0.0 0.00 0.00 0.00 82 1015.1
20260905142216 8 335 0.0 0.0 0.00 0.00 0.00 83 1015.0
20260905141224 7 356 0.0 0.0 0.00 0.00 0.00 82 1014.8
20260905140157 7 356 0.0 0.0 0.00 0.00 0.00 82 1014.6
20260905135211 7 356 0.0 0.0 0.00 0.00 0.00 82 1014.6
20260905134137 7 356 0.0 0.0 0.00 0.00 0.00 82 1014.2
20260905133125 7 356 0.0 0.0 0.00 0.00 0.00 81 1014.1
20260905132102 7 356 0.0 0.0 0.00 0.00 0.00 80 1014.1
20260905131047 7 356 0.0 0.0 0.00 0.00 0.00 80 1013.9
20260905130033 7 356 0.0 0.0 0.00 0.00 0.00 80 1013.5
20260905125008 7 340 0.0 0.0 0.00 0.00 0.00 79 1013.2
20260905124022 7 340 0.0 0.0 0.00 0.00 0.00 78 1013.2
20260905122959 8 339 0.0 0.0 0.00 0.00 0.00 77 1013.0
20260905121959 8 340 0.0 0.0 0.00 0.00 0.00 76 1012.9
20260905121004 8 339 0.0 0.0 0.00 0.00 0.00 76 1013.0
20260905115940 8 339 0.0 0.0 0.00 0.00 0.00 75 1013.2
20260905114957 8 338 0.0 0.0 0.00 0.00 0.00 75 1013.4
20260905114000 8 338 0.0 0.0 0.00 0.00 0.00 73 1013.5
20260905113013 9 337 0.0 0.0 0.00 0.00 0.00 73 1013.3
20260905112012 9 337 0.0 0.0 0.00 0.00 0.00 72 1013.0
20260905105853 10 337 0.0 0.0 0.00 0.00 0.00 70 1012.4
20260905102550 10 336 0.0 0.0 0.00 0.00 0.00 66 1011.5
20260905100427 11 334 0.0 0.0 0.00 0.00 0.00 63 1011.2
20260905094211 12 334 0.0 0.0 0.00 0.00 0.00 59 1010.9
20260905093148 12 333 0.0 0.0 0.00 0.00 0.00 58 1011.0
20260905092155 13 333 0.0 0.0 0.00 0.00 0.00 57 1011.1
20260905091202 13 333 0.0 3.2 0.00 0.00 0.00 57 1011.2
20260905090155 13 332 0.0 0.0 0.00 0.00 0.00 56 1011.1
20260905085137 13 332 0.0 0.0 0.00 0.00 0.00 57 1011.1
20260905084110 13 332 0.0 4.8 0.00 0.00 0.00 56 1011.4
20260905083123 13 332 0.0 0.0 0.00 0.00 0.00 56 1011.1
20260905082127 13 332 0.0 0.0 0.00 0.00 0.00 56 1011.0
20260905081119 14 332 0.0 0.0 0.00 0.00 0.00 56 1010.8
20260905080106 14 332 0.0 0.0 0.00 0.00 0.00 56 1011.4
20260905075111 13 332 1.6 11.3 0.00 0.00 0.00 55 1011.7
20260905074118 13 332 0.0 3.2 0.00 0.00 0.00 56 1011.5
20260905073051 13 332 0.0 0.0 0.00 0.00 0.00 56 1011.2
20260905072046 13 332 0.0 0.0 0.00 0.00 0.00 56 1011.0
20260905071058 13 332 0.0 4.8 0.00 0.00 0.00 56 1011.2
20260905070049 13 332 0.0 3.2 0.00 0.00 0.00 57 1011.0
20260905065034 13 332 0.0 0.0 0.00 0.00 0.00 60 1010.8
20260905064018 13 332 0.0 0.0 0.00 0.00 0.00 57 1011.0
20260905063006 13 332 0.0 0.0 0.00 0.00 0.00 58 1010.3
20260905061952 14 332 0.0 0.0 0.00 0.00 0.00 55 1010.8
20260905060935 14 332 0.0 0.0 0.00 0.00 0.00 55 1010.5
20260905055936 14 332 0.0 1.6 0.00 0.00 0.00 55 1010.0
20260905055000 13 332 0.0 4.8 0.00 0.00 0.00 56 1010.5
20260905053933 13 332 0.0 0.0 0.00 0.00 0.00 59 1009.8